Time,TemperatureF,DewpointF,PressureIn,WindDirection,WindDirectionDegrees,WindSpeedMPH,WindSpeedGustMPH,Humidity,HourlyPrecipIn,Conditions,Clouds,dailyrainin,SoftwareType,DateUTC
2013-05-27 00:06:00,47.3,44.5,30.12,NNW,335,0.0,2.0,90,0.00,,---,0.00,VWS V14.00,2013-05-27 04:06:00,
2013-05-27 00:36:00,46.5,44.3,30.12,NNW,335,0.0,0.0,92,0.00,,---,0.00,VWS V14.00,2013-05-27 04:36:00,
2013-05-27 01:06:00,45.8,43.9,30.14,NNW,335,0.0,1.0,93,0.00,,---,0.00,VWS V14.00,2013-05-27 05:06:00,
2013-05-27 01:36:00,46.0,44.4,30.14,NNW,336,0.0,4.0,94,0.00,,---,0.00,VWS V14.00,2013-05-27 05:36:00,
2013-05-27 02:06:00,45.2,43.6,30.14,NNW,336,0.0,4.0,94,0.00,,---,0.00,VWS V14.00,2013-05-27 06:06:00,
2013-05-27 02:36:00,44.8,43.5,30.15,NNW,336,0.0,1.0,95,0.00,,---,0.00,VWS V14.00,2013-05-27 06:36:00,
2013-05-27 03:06:00,45.4,43.8,30.16,NNW,336,0.0,2.0,94,0.00,,---,0.00,VWS V14.00,2013-05-27 07:06:00,
2013-05-27 03:36:00,44.3,42.7,30.16,NNW,336,0.0,0.0,94,0.00,,---,0.00,VWS V14.00,2013-05-27 07:36:00,
2013-05-27 04:06:00,43.3,41.7,30.16,NNW,336,0.0,0.0,94,0.00,,---,0.00,VWS V14.00,2013-05-27 08:06:00,
2013-05-27 04:36:00,43.3,42.0,30.16,NNW,336,0.0,1.0,95,0.00,,---,0.00,VWS V14.00,2013-05-27 08:36:00,
2013-05-27 05:06:00,42.8,41.7,30.16,NNW,336,0.0,0.0,96,0.00,,---,0.00,VWS V14.00,2013-05-27 09:06:00,
2013-05-27 05:36:00,42.3,41.2,30.17,NNW,336,0.0,0.0,96,0.00,,---,0.00,VWS V14.00,2013-05-27 09:36:00,
2013-05-27 06:06:00,41.8,41.0,30.17,NNW,336,0.0,0.0,97,0.00,,---,0.00,VWS V14.00,2013-05-27 10:06:00,
2013-05-27 06:36:00,42.2,41.4,30.17,NNW,336,0.0,0.0,97,0.00,,---,0.00,VWS V14.00,2013-05-27 10:36:00,
2013-05-27 07:06:00,46.4,46.1,30.18,NNW,336,0.0,0.0,99,0.00,,---,0.00,VWS V14.00,2013-05-27 11:06:00,
2013-05-27 07:36:00,50.4,49.9,30.18,NNW,336,0.0,0.0,98,0.00,,---,0.00,VWS V14.00,2013-05-27 11:36:00,
2013-05-27 08:06:00,56.3,49.9,30.18,NNW,336,0.0,1.0,79,0.00,,---,0.00,VWS V14.00,2013-05-27 12:06:00,
2013-05-27 08:36:00,63.2,48.2,30.19,NNW,338,0.0,1.0,58,0.00,,---,0.00,VWS V14.00,2013-05-27 12:36:00,
2013-05-27 09:06:00,66.1,44.2,30.20,ENE,58,0.0,4.0,45,0.00,,---,0.00,VWS V14.00,2013-05-27 13:06:00,
2013-05-27 09:36:00,68.9,42.3,30.20,ENE,78,0.0,6.0,38,0.00,,---,0.00,VWS V14.00,2013-05-27 13:36:00,
2013-05-27 10:06:00,71.5,37.6,30.20,East,91,0.0,6.0,29,0.00,,---,0.00,VWS V14.00,2013-05-27 14:06:00,
2013-05-27 10:36:00,72.1,42.2,30.20,ESE,121,0.0,5.0,34,0.00,,---,0.00,VWS V14.00,2013-05-27 14:36:00,
2013-05-27 11:06:00,74.0,39.8,30.20,SSW,192,0.0,6.0,29,0.00,,---,0.00,VWS V14.00,2013-05-27 15:06:00,
2013-05-27 11:36:00,74.2,39.9,30.20,South,175,0.0,5.0,29,0.00,,---,0.00,VWS V14.00,2013-05-27 15:36:00,
2013-05-27 12:06:00,74.0,43.1,30.20,SSW,194,0.0,5.0,33,0.00,,---,0.00,VWS V14.00,2013-05-27 16:06:00,
2013-05-27 12:36:00,77.4,41.8,30.18,NW,319,2.0,5.0,28,0.00,,---,0.00,VWS V14.00,2013-05-27 16:36:00,
2013-05-27 13:06:00,76.1,41.6,30.17,WSW,244,0.0,7.0,29,0.00,,---,0.00,VWS V14.00,2013-05-27 17:06:00,
2013-05-27 13:36:00,74.7,38.5,30.17,SW,223,1.0,5.0,27,0.00,,---,0.00,VWS V14.00,2013-05-27 17:36:00,
2013-05-27 14:06:00,74.4,42.7,30.17,WNW,296,0.0,6.0,32,0.00,,---,0.00,VWS V14.00,2013-05-27 18:06:00,
2013-05-27 14:36:00,74.7,39.5,30.16,WSW,256,0.0,6.0,28,0.00,,---,0.00,VWS V14.00,2013-05-27 18:36:00,
2013-05-27 15:06:00,74.2,41.7,30.15,NW,311,0.0,7.0,31,0.00,,---,0.00,VWS V14.00,2013-05-27 19:06:00,
2013-05-27 15:36:00,72.7,41.2,30.14,West,269,0.0,8.0,32,0.00,,---,0.00,VWS V14.00,2013-05-27 19:36:00,
2013-05-27 16:06:00,72.1,41.4,30.14,West,270,0.0,6.0,33,0.00,,---,0.00,VWS V14.00,2013-05-27 20:06:00,
2013-05-27 16:36:00,71.1,41.3,30.13,West,266,0.0,6.0,34,0.00,,---,0.00,VWS V14.00,2013-05-27 20:36:00,
2013-05-27 17:06:00,70.8,43.3,30.12,West,266,0.0,4.0,37,0.00,,---,0.00,VWS V14.00,2013-05-27 21:06:00,
2013-05-27 17:36:00,70.9,47.3,30.12,West,266,0.0,2.0,43,0.00,,---,0.00,VWS V14.00,2013-05-27 21:36:00,
2013-05-27 18:06:00,70.4,47.5,30.12,West,266,0.0,1.0,44,0.00,,---,0.00,VWS V14.00,2013-05-27 22:06:00,
2013-05-27 18:36:00,69.6,48.5,30.12,West,266,0.0,0.0,47,0.00,,---,0.00,VWS V14.00,2013-05-27 22:36:00,
2013-05-27 19:06:00,68.4,54.0,30.11,West,266,0.0,1.0,60,0.00,,---,0.00,VWS V14.00,2013-05-27 23:06:00,
2013-05-27 19:36:00,66.4,55.5,30.11,SE,135,0.0,0.0,68,0.00,,---,0.00,VWS V14.00,2013-05-27 23:36:00,
2013-05-27 20:06:00,63.9,52.7,30.12,SE,135,0.0,1.0,67,0.00,,---,0.00,VWS V14.00,2013-05-28 00:06:00,
2013-05-27 20:36:00,62.0,52.1,30.11,SE,135,0.0,0.0,70,0.00,,---,0.00,VWS V14.00,2013-05-28 00:36:00,
2013-05-27 21:06:00,59.9,52.0,30.12,SE,135,0.0,0.0,75,0.00,,---,0.00,VWS V14.00,2013-05-28 01:06:00,
2013-05-27 21:36:00,58.1,50.9,30.12,SE,135,0.0,0.0,77,0.00,,---,0.00,VWS V14.00,2013-05-28 01:36:00,
2013-05-27 22:06:00,57.0,50.6,30.13,SE,135,0.0,0.0,79,0.00,,---,0.00,VWS V14.00,2013-05-28 02:06:00,
2013-05-27 22:36:00,55.7,50.3,30.14,SE,135,0.0,0.0,82,0.00,,---,0.00,VWS V14.00,2013-05-28 02:36:00,
2013-05-27 23:06:00,55.3,50.6,30.14,SE,135,0.0,0.0,84,0.00,,---,0.00,VWS V14.00,2013-05-28 03:06:00,
2013-05-27 23:36:00,55.7,51.6,30.14,SE,135,0.0,0.0,86,0.00,,---,0.00,VWS V14.00,2013-05-28 03:36:00,